DW2806 Weather Reports


time (UTC)temp
C
wind
direction
speed
KPH
gust
KPH
rain 1hr
cm
rain 24hr
cm
rain mn
cm
humidity
%
barometer
mb
20260508151538 15 29 0.0 0.0 0.00 0.00 0.00 38 1025.7
20260508150036 15 43 1.6 9.7 0.00 0.00 0.00 39 1025.7
20260508144534 15 56 1.6 9.7 0.00 0.00 0.00 38 1025.7
20260508143032 15 352 0.0 9.7 0.00 0.00 0.00 41 1025.7
20260508141528 15 139 0.0 8.0 0.00 0.00 0.00 40 1025.7
20260508140023 14 69 0.0 9.7 0.00 0.00 0.00 43 1025.7
20260508134518 13 14 0.0 6.4 0.00 0.00 0.00 42 1025.7
20260508133015 13 39 0.0 8.0 0.00 0.00 0.00 45 1025.7
20260508131510 12 65 1.6 9.7 0.00 0.00 0.00 47 1025.7
20260508130006 12 93 0.0 8.0 0.00 0.00 0.00 50 1025.7
20260508124502 11 57 0.0 1.6 0.00 0.00 0.00 55 1025.7
20260508123057 10 50 0.0 8.0 0.00 0.00 0.00 54 1025.7
20260508121554 10 26 0.0 3.2 0.00 0.00 0.00 58 1025.7
20260508120051 8 26 0.0 0.0 0.00 0.00 0.00 62 1025.7
20260508114602 7 26 0.0 0.0 0.00 0.00 0.00 71 1025.7
20260508113046 6 26 0.0 0.0 0.00 0.00 0.00 75 1025.7
20260508111557 5 26 0.0 0.0 0.00 0.00 0.00 79 1025.7
20260508110042 4 26 0.0 0.0 0.00 0.00 0.00 81 1025.7
20260508104541 4 26 0.0 0.0 0.00 0.00 0.00 82 1025.7
20260508103040 4 26 0.0 0.0 0.00 0.00 0.00 83 1025.7
20260508101539 3 26 0.0 0.0 0.00 0.00 0.00 84 1025.7
20260508100038 3 26 0.0 0.0 0.00 0.00 0.00 84 1025.7
20260508094537 3 26 0.0 0.0 0.00 0.00 0.00 84 1025.7
20260508093035 3 26 0.0 0.0 0.00 0.00 0.00 84 1025.7
20260508091543 3 26 0.0 0.0 0.00 0.00 0.00 86 1025.7
20260508090033 3 26 0.0 0.0 0.00 0.00 0.00 86 1025.7
20260508084532 3 26 0.0 0.0 0.00 0.00 0.00 85 1025.7
20260508083030 3 26 0.0 0.0 0.00 0.00 0.00 83 1025.7
20260508081537 3 26 0.0 0.0 0.00 0.00 0.00 83 1025.7
20260508080025 3 26 0.0 0.0 0.00 0.00 0.00 82 1025.7
20260508074526 4 26 0.0 0.0 0.00 0.00 0.00 81 1025.7
20260508073022 4 26 0.0 0.0 0.00 0.00 0.00 80 1025.7
20260508071520 4 26 0.0 0.0 0.00 0.00 0.00 78 1025.7
20260508070017 5 26 0.0 0.0 0.00 0.00 0.00 77 1025.7
20260508064524 5 26 0.0 0.0 0.00 0.00 0.00 75 1025.7
20260508063013 5 26 0.0 0.0 0.00 0.00 0.00 73 1025.7
20260508061510 6 26 0.0 0.0 0.00 0.00 0.00 74 1025.7
20260508060008 6 26 0.0 0.0 0.00 0.00 0.00 73 1025.7
20260508054509 6 26 0.0 0.0 0.00 0.00 0.00 73 1025.7
20260508053002 7 26 0.0 0.0 0.00 0.00 0.00 70 1025.7
20260508051607 7 26 0.0 0.0 0.00 0.00 0.00 69 1025.7
20260508050058 7 26 0.0 0.0 0.00 0.00 0.00 70 1025.7
20260508044555 8 26 0.0 0.0 0.00 0.00 0.00 69 1025.7
20260508043054 8 26 0.0 0.0 0.00 0.00 0.00 64 1025.7
20260508041550 8 26 0.0 0.0 0.00 0.00 0.00 64 1025.7
20260508040048 8 26 0.0 0.0 0.00 0.00 0.00 63 1025.7
20260508034550 8 26 0.0 0.0 0.00 0.00 0.00 62 1025.7
20260508033048 8 26 0.0 0.0 0.00 0.00 0.00 63 1025.7
20260508031545 8 26 0.0 0.0 0.00 0.00 0.00 62 1025.7
20260508030043 9 26 0.0 0.0 0.00 0.00 0.00 61 1025.7
20260508024554 9 26 0.0 0.0 0.00 0.00 0.00 59 1025.7
20260508023044 9 26 0.0 0.0 0.00 0.00 0.00 66 1025.7
20260508021542 9 26 0.0 0.0 0.00 0.00 0.00 58 1025.7
20260508020042 10 26 0.0 0.0 0.00 0.00 0.00 61 1025.7
20260508014541 10 26 0.0 0.0 0.00 0.00 0.00 61 1025.7
20260508013040 10 26 0.0 0.0 0.00 0.00 0.00 57 1025.7
20260508011540 10 26 0.0 0.0 0.00 0.00 0.00 56 1025.7
20260508010041 11 26 0.0 0.0 0.00 0.00 0.00 55 1025.7
20260508004542 11 26 0.0 0.0 0.00 0.00 0.00 57 1025.7
20260508003038 12 26 0.0 0.0 0.00 0.00 0.00 52 1025.7
20260508001539 13 26 0.0 0.0 0.00 0.00 0.00 44 1025.7
20260508000037 13 26 0.0 0.0 0.00 0.00 0.00 42 1025.7
20260507234542 14 26 0.0 6.4 0.00 0.00 0.00 41 1025.7
20260507233036 14 26 0.0 0.0 0.00 0.00 0.00 40 1025.7
20260507231543 15 26 0.0 0.0 0.00 0.00 0.00 39 1025.7
20260507230034 15 26 0.0 0.0 0.00 0.00 0.00 38 1025.7
20260507224535 15 27 0.0 0.0 0.00 0.00 0.00 37 1025.7
20260507223034 16 26 0.0 6.4 0.00 0.00 0.00 37 1025.7
20260507221533 16 68 0.0 9.7 0.00 0.00 0.00 38 1025.7
20260507220033 16 65 0.0 3.2 0.00 0.00 0.00 36 1025.7
20260507214531 16 64 0.0 8.0 0.00 0.00 0.00 36 1025.7
20260507213035 16 98 1.6 11.3 0.00 0.00 0.00 37 1025.7
20260507211533 17 47 3.2 12.9 0.00 0.00 0.00 37 1025.7
20260507210030 17 329 0.0 6.4 0.00 0.00 0.00 35 1025.7
20260507204529 17 81 0.0 12.9 0.00 0.00 0.00 36 1025.7
20260507203031 17 20 0.0 11.3 0.00 0.00 0.00 36 1025.7
20260507201529 17 13 0.0 8.0 0.00 0.00 0.00 35 1025.7
20260507200027 17 6 0.0 8.0 0.00 0.00 0.00 34 1025.7
20260507194531 17 54 0.0 9.7 0.00 0.00 0.00 34 1025.7
20260507193026 17 71 0.0 9.7 0.00 0.00 0.00 33 1025.7
20260507191524 17 50 1.6 12.9 0.00 0.00 0.00 33 1025.7
20260507190023 18 36 0.0 8.0 0.00 0.00 0.00 33 1025.7
20260507184521 18 324 0.0 11.3 0.00 0.00 0.00 33 1025.7
20260507183020 18 88 4.8 12.9 0.00 0.00 0.00 36 1025.7
20260507181518 18 61 1.6 12.9 0.00 0.00 0.00 34 1025.7
20260507180016 18 33 0.0 8.0 0.00 0.00 0.00 39 1025.7
20260507174516 18 77 1.6 11.3 0.00 0.00 0.00 37 1025.7
20260507173026 18 339 0.0 9.7 0.00 0.00 0.00 39 1025.7
20260507171513 17 79 3.2 14.5 0.00 0.00 0.00 43 1025.7
20260507170008 17 88 0.0 11.3 0.00 0.00 0.00 52 1025.7
20260507164507 17 280 1.6 9.7 0.00 0.00 0.00 56 1025.7
20260507163006 16 12 0.0 8.0 0.00 0.00 0.00 56 1025.7
20260507161514 17 29 0.0 3.2 0.00 0.00 0.00 55 1025.7
20260507160003 17 51 0.0 8.0 0.00 0.00 0.00 56 1025.7
20260507154600 16 14 0.0 6.4 0.00 0.00 0.00 57 1025.7
20260507153058 16 45 0.0 6.4 0.00 0.00 0.00 54 1025.7